Home   Weather   Emmen   Past weeks

Flag for Switzerland Past Weather in Emmen, Lucerne, Switzerland — Yesterday and Last 2 Weeks

Now
47 °F

Cool.


Feels Like: 47 °F
Forecast: 39 / 49 °F
Wind: 1 mph from West

Location: Giswil

Current Time: Feb 20, 2017 at 7:09:16 pm

Latest Report: Feb 20, 2017 at 6:00 pm


Visibility: N/A

Pressure: 30.23 "Hg

Humidity: 63%

Dew Point: 35 °F

Location of EmmenLocation

Past Weather in Emmen — Graph

°F

Emmen Temperature Yesterday

Maximum temperature yesterday: 50 °F (at 4:00 pm)
Minimum temperature yesterday: 22 °F (at 7:00 am)
Average temperature yesterday: 32 °F

High & Low Weather Summary for the Past Weeks

 TemperatureHumidityPressure
High54 °F (Feb 16, 4:00 pm)100% (Feb 5, 8:00 pm)30.68 "Hg (Feb 5, 8:00 pm)
Low22 °F (Feb 19, 7:00 am)42% (Feb 20, 2:00 pm)29.67 "Hg (Feb 5, 6:00 pm)
Average33 °F95%30.29 "Hg
* Reported Feb 5 5:00 pm — Feb 20 5:00 pm, Emmen, Weather by CustomWeather, © 2017

Note: Actual official high and low records may vary slightly from our data, if they occured in-between our weather recording intervals... More about our weather records

Advertising

Emmen Weather History for the Previous 24 Hours

Scroll right to see more
 ConditionsComfort  
Time TempWeatherWind HumidityBarometerVisibility
5:00 pm
Mon, Feb 20
49 °FCool.6 mph56%30.20 "HgN/A
4:00 pm50 °FCool.5 mph54%30.21 "HgN/A
3:00 pm52 °FCool.2 mph42%30.20 "HgN/A
2:00 pm51 °FCool.2 mph42%30.23 "HgN/A
1:00 pm49 °FCool.2 mph50%30.27 "HgN/A
12:00 pm46 °FCool.1 mph61%30.31 "HgN/A
11:00 am42 °FQuite cool.2 mph74%30.33 "HgN/A
10:00 am36 °FChilly.No wind97%30.35 "HgN/A
9:00 am28 °FChilly.1 mph100%30.40 "HgN/A
8:00 am29 °FChilly.2 mph99%30.38 "HgN/A
7:00 am27 °FChilly.1 mph99%30.36 "HgN/A
6:00 am30 °FChilly.1 mph99%30.34 "HgN/A
5:00 am31 °FChilly.1 mph99%30.34 "HgN/A
4:00 am30 °FChilly.1 mph99%30.36 "HgN/A
3:00 am30 °FChilly.No wind99%30.35 "HgN/A
2:00 am32 °FChilly.No wind100%30.36 "HgN/A
1:00 am33 °FChilly.1 mph99%30.36 "HgN/A
12:00 am32 °FChilly.1 mph99%30.36 "HgN/A
11:00 pm
Sun, Feb 19
32 °FChilly.1 mph99%30.35 "HgN/A
10:00 pm31 °FChilly.1 mph99%30.33 "HgN/A
9:00 pm32 °FChilly.2 mph99%30.32 "HgN/A
8:00 pm36 °FChilly.1 mph91%30.30 "HgN/A
7:00 pm35 °FChilly.1 mph90%30.29 "HgN/A
Weather by CustomWeather, © 2017

See weather overviewHow to use our weather pages